Meteo Giornale » Osservazioni meteo Italia » Roma-Ciampino

ore: 03:50 - Osservazioni Meteo Roma-Ciampino
Lat. 41° 47' N Lon. 12° 35' E Alt. 129 metri s.l.m.

sereno Europe/Rome

6 °C

Sereno

Temp. 24 Ore

6 °C

15 °C

Nord-Est

9.3 Km/h

Dew point 4 °C

Umidità 86 %

Visibilità  10 Km

Il sole sorge alle ore 07:03

Il sole tramonta alle ore 16:47

Data e Ora Cielo e Fenomeni T °C DP °C Um. % Pres. hPa Vis. km Vento km/h
Oggi h: 03:50 sereno Sereno 6 4 86 1014 10 NE 9.3
Oggi h: 03:20 sereno Sereno 7 4 81 1014 10 N/NE 14.8
Oggi h: 02:50 sereno Sereno 6 4 86 1014 10 N/NE 9.3
Oggi h: 02:20 sereno Sereno 7 4 81 1014 10 N/NE 13
Oggi h: 01:50 sereno Sereno 7 4 81 1014 10 N/NE 14.8
Oggi h: 01:20 sereno Sereno 7 4 81 1014 10 NE 11.1
Oggi h: 00:50 sereno Sereno 7 4 81 1014 10 N/NE 13
Oggi h: 00:20 sereno Sereno 8 4 75 1014 10 NE 9.3
Ieri h: 23:50 sereno Sereno 8 4 75 1015 10 NE 7.4
Ieri h: 23:20 sereno Sereno 8 4 75 1014 10 N/NE 7.4
Ieri h: 22:50 sereno Sereno 8 4 75 1014 10 NE 7.4
Ieri h: 22:20 sereno Sereno 8 5 81 1014 10 NE 7.4
Ieri h: 21:50 sereno Sereno 8 4 75 1014 10 E/NE 7.4
Ieri h: 21:20 sereno Sereno 9 5 75 1015 10 N/NE 7.4
Ieri h: 20:50 sereno Sereno 9 5 75 1014 10 N/NE 7.4
Ieri h: 20:20 sereno Sereno 10 5 71 1014 10 N/NE 11.1
Ieri h: 19:50 sereno Sereno 10 5 71 1014 10 N/NE 9.3
Ieri h: 19:20 sereno Sereno 11 5 66 1014 10 N/NE 11.1
Ieri h: 18:50 sereno Sereno 11 5 66 1014 10 NE 9.3
Ieri h: 18:20 sereno Sereno 13 5 58 1014 10 N 9.3
Ieri h: 17:20 sereno Sereno 13 7 66 1013 10 N 1.8
Ieri h: 16:50 sereno Sereno 14 7 62 1013 10 N 3.7
Ieri h: 16:20 poco_nuvoloso Poco Nuvoloso 14 8 67 1013 10 NO 7.4
Ieri h: 15:50 poco_nuvoloso Poco Nuvoloso 15 8 62 1013 10 NO 9.3
Ieri h: 15:20 poco_nuvoloso Poco Nuvoloso 15 8 62 1013 10 N 5.5
Ieri h: 14:50 poco_nuvoloso Poco Nuvoloso 15 8 62 1013 10 N 9.3
Ieri h: 14:20 poco_nuvoloso Poco Nuvoloso 15 7 58 1013 10 N/NE 9.3
Ieri h: 13:50 sereno Sereno 15 7 58 1013 10 N/NE 11.1
Ieri h: 13:20 sereno Sereno 15 7 58 1013 10 N/NE 13
Ieri h: 12:50 poco_nuvoloso Poco Nuvoloso 14 7 62 1014 10 N/NE 13
Ieri h: 12:20 poco_nuvoloso Poco Nuvoloso 14 7 62 1014 10 N/NE 14.8
Ieri h: 11:50 poco_nuvoloso Poco Nuvoloso 13 7 66 1014 10 N 13
Ieri h: 11:20 poco_nuvoloso Poco Nuvoloso 12 7 71 1014 10 N 11.1
Ieri h: 10:50 poco_nuvoloso Poco Nuvoloso 11 7 76 1014 10 N/NE 11.1
Ieri h: 10:20 nuvoloso Nuvoloso 10 7 81 1014 10 N/NE 9.3
Ieri h: 09:50 nuvoloso Nuvoloso 9 6 81 1014 10 N 9.3
Ieri h: 09:20 nuvoloso Nuvoloso 8 5 81 1014 10 N/NE 14.8
Ieri h: 08:50 poco_nuvoloso Poco Nuvoloso 8 5 81 1014 10 N/NE 11.1
Ieri h: 08:20 poco_nuvoloso Poco Nuvoloso 7 5 87 1014 10 NE 13
Ieri h: 07:50 poco_nuvoloso Poco Nuvoloso 6 4 86 1014 10 N/NE 7.4
Ieri h: 07:20 sereno Sereno 6 4 86 1013 10 N/NE 9.3
Ieri h: 06:50 sereno Sereno 6 4 86 1013 10 N/NE 9.3
Ieri h: 06:20 sereno Sereno 6 4 86 1013 10 N/NE 7.4
Ieri h: 05:50 sereno Sereno 6 4 86 1013 10 N/NE 7.4
Ieri h: 05:20 sereno Sereno 7 5 87 1013 10 NE 7.4
Ieri h: 04:50 sereno Sereno 6 5 93 1013 10 N/NE 9.3
Ieri h: 04:20 sereno Sereno 7 5 87 1013 10 N 5.5